BOBCAT-1 (46922 NORAD) Tracking and Keplerian Element Data

This shows tracking and keplerian element data for the satellite.

Feedback or suggestion? Click here.




ElementValue
Catalog46922
NameBOBCAT-1
Epoch Orbit8117
Epoch Day98.90122068
Epoch Year2022
RAAN272.7697
Inclination51.624
Eccentricity0.0008754
Argument of Perigee281.6685
Mean Anonmoly78.3359
Mean Motion16.41269594
Decay Rate0.11905367
L11 46922U 98067RS 22098.90122068 .11905367 12464-4 72310-3 0 9991
L22 46922 51.6240 272.7697 0008754 281.6685 78.3359 16.41269594 81172



Live tracking and technical data element details for BOBCAT-1 (NORAD 46922). BOBCAT-1 can be tracked NOW for your location showing map with azimuth and elevation plus other details from your city location.







IsCatalogInMostPopularTable: catalog: 46922, numindb: 158
Update: records affected: 1



GetName: 46922 BOBCAT-1

Hit Count: updated at: Fri, 02 Dec 2022 13:30:30 GMT